Regional Weather Roundup
Issued by NWS

Home | Current Version | Previous Version | Graphics & Text | Print | Product List | Glossary On
Versions: 1 2 3 4 5 6 7 8 9 10 11 12 13 14 15 16 17 18 19 20 21 22 23 24 25 26 27 28 29 30 31 32 33 34 35 36 37 38 39 40 41 42 43 44 45 46 47 48 49 50
000
ASUS45 KCYS 050610
RWRWY

WYOMING REGIONAL WEATHER ROUNDUP
NATIONAL WEATHER SERVICE CHEYENNE WY
1200 AM MDT SUN JUL 05 2015

NOTE:  "FAIR" INDICATES FEW OR NO CLOUDS BELOW 12,000 FEET
WITH NO SIGNIFICANT WEATHER AND/OR OBSTRUCTIONS TO VISIBILITY.

WYZ001-050700-
YELLOWSTONE NATIONAL PARK

CITY           SKY/WX    TMP DP  RH WIND       PRES   REMARKS
LK YELLOWSTONE   N/A     56  41  57 NW3       30.17F
6HR MIN TEMP:  56; 6HR MAX TEMP:  80;

W YELLOWSTONE  NOT AVBL

$$
WYZ002>013-054>058-071-098>099-050700-
NORTHERN WYOMING

CITY           SKY/WX    TMP DP  RH WIND       PRES   REMARKS
JACKSON        FAIR      63  45  51 E3        30.05F
CODY           FAIR      75  43  31 CALM      29.90F
GREYBULL       FAIR      83  46  27 VRB5      29.78R
6HR MIN TEMP:  81; 6HR MAX TEMP:  98;

WORLAND        FAIR      72  51  47 W6        29.82R
6HR MIN TEMP:  72; 6HR MAX TEMP:  95;

SHERIDAN       FAIR      67  55  65 SW6       29.80F
6HR MIN TEMP:  66; 6HR MAX TEMP:  94;

BUFFALO        FAIR      75  51  43 S10       29.91F
6HR MIN TEMP:  71; 6HR MAX TEMP:  90;

GILLETTE       FAIR      74  46  36 S14       29.85F
6HR MIN TEMP:  70; 6HR MAX TEMP:  90;

HULETT         FAIR      70  48  46 CALM      29.87F
NEWCASTLE      FAIR      73  54  49 E10       29.88F

$$
WYZ014>020-022>026-101>103-050700-
CENTRAL WYOMING

CITY           SKY/WX    TMP DP  RH WIND       PRES   REMARKS
BIG PINEY      FAIR      64  37  36 N10       30.10F
6HR MIN TEMP:  63; 6HR MAX TEMP:  88;

PINEDALE       FAIR      61  45  55 NW7       30.11F
DUBOIS         FAIR      66  30  26 NW6       30.11S
LANDER         FAIR      76  43  30 W10       29.94R
6HR MIN TEMP:  74; 6HR MAX TEMP:  94;

RIVERTON       FAIR      81  42  25 N17G24    29.92F
6HR MIN TEMP:  78; 6HR MAX TEMP:  94;

CASPER         FAIR      71  46  40 SW3       29.93R
6HR MIN TEMP:  69; 6HR MAX TEMP:  94;

DOUGLAS        FAIR      68  59  73 SE6       29.93F
6HR MIN TEMP:  67; 6HR MAX TEMP:  90;


$$
WYZ021-027>030-104>119-050700-
SOUTHERN WYOMING

CITY           SKY/WX    TMP DP  RH WIND       PRES   REMARKS
EVANSTON       FAIR      67  48  50 SW13      30.16F
6HR MIN TEMP:  67; 6HR MAX TEMP:  86;

KEMMERER       FAIR     N/A N/A N/A W7        30.15S
FORT BRIDGER   CLEAR     68  50  52 W14       30.16F
ROCK SPRINGS   MOCLDY    71  44  37 SW15      30.08F
6HR MIN TEMP:  70; 6HR MAX TEMP:  87;

DIXON          FAIR      65  47  53 CALM      30.14R
RAWLINS        FAIR      63  52  67 SE7       30.12F
6HR MIN TEMP:  63; 6HR MAX TEMP:  88; 6HR PCP:  0.03;

SARATOGA       FAIR      63  48  59 CALM      30.16S
LARAMIE        MOCLDY    69  43  38 N16G25    30.15F
6HR MIN TEMP:  64; 6HR MAX TEMP:  84; 6HR PCP: TRACE;

CHEYENNE       FAIR      69  51  52 CALM      30.05R
6HR MIN TEMP:  67; 6HR MAX TEMP:  82; 6HR PCP:  0.01;

TORRINGTON     FAIR      70  58  65 E8        29.88F
6HR MIN TEMP:  69; 6HR MAX TEMP:  94;

PINE BLUFFS    FAIR      64  55  72 SW7       29.98F

$$



USA.gov is the U.S. government's official web portal to all federal, state and local government web resources and services.